Simultaneous Nadir Overpasses (SNOs) Predictions

Prediction of SNOs near US between AQUA and NPP Satellite Orbit:

Table of predicted SNOs near US for the next 10.0 days since TLE Epoch: 4/1/2012
Index Date (AQUA) Time (AQUA) AQUA Lat,Lon Date (NPP) Time (NPP) NPP Lat,Lon Distance(km) Time Diff (sec)
1 04/03/2012 06:31:50 42.85, -66.37 04/03/2012 06:30:46 43.22, -68.49 177.22 64
2 04/03/2012 08:08:44 49.93, -88.41 04/03/2012 08:10:11 50.42, -90.95 188.81 87
3 04/03/2012 09:47:38 49.88,-113.16 04/03/2012 09:51:39 50.53,-116.28 233.55 241
4 04/05/2012 19:06:56 49.95, -92.65 04/05/2012 19:00:27 49.65, -94.48 135.26 389
5 04/05/2012 20:45:50 50.00,-117.40 04/05/2012 20:41:56 49.60,-119.83 180.44 234




NCC Satellite Simultaneous Nadir Overpasses (SNOs) Prediction Service
